Temperature
21 20 20 20 21 21 23 25 26 25 25 25 25 25 24 23 22 19 19 19 18 18 18 18 18 18 18 18 18 18 18 18 18 18 17 17 17 17 17 17 17 17 17 17 17 17 17 17 18
20 20 20 21 21 23 24 25 25 25 25 25 25 25 24 22 20 19 19 19 18 18 18 18 18 18 18 18 18 18 18 17 17 17 17 17 17 17 17 17 17 17 17 17 17 17 17 17 17
20 20 21 22 23 23 23 24 25 25 25 25 24 24 23 21 20 19 19 19 18 18 18 18 18 18 18 18 18 18 17 17 17 17 17 17 17 17 17 17 17 17 17 17 17 17 17 17 17
20 21 22 22 24 25 25 25 25 25 25 25 24 23 21 21 20 19 19 19 18 18 18 18 18 18 18 18 17 17 17 17 17 17 17 17 17 17 17 17 17 17 17 17 17 17 17 17 17
21 22 22 23 24 25 26 26 26 25 25 24 23 22 20 19 19 19 19 18 18 18 18 18 18 18 18 18 17 17 17 17 17 17 17 17 17 17 17 16 16 16 16 16 16 16 17 17 17
21 23 22 23 24 25 26 26 25 25 25 24 23 22 19 19 19 19 19 19 18 18 18 18 18 18 18 18 17 17 17 17 17 17 17 17 17 17 17 17 17 16 16 16 16 16 16 17 17
21 22 22 23 23 24 25 25 25 25 24 24 23 21 19 19 19 19 19 19 18 18 18 18 18 18 18 17 17 17 17 17 17 17 17 17 17 16 17 17 16 16 16 16 16 16 17 17 17
22 22 23 23 23 24 25 25 25 24 24 24 23 21 19 19 19 19 19 19 19 18 18 18 18 17 17 17 17 17 17 17 17 17 17 17 16 16 16 16 16 16 16 16 16 17 17 17 17
22 22 22 23 23 23 25 25 24 24 24 23 23 21 20 19 19 19 19 19 19 19 18 18 18 17 17 18 17 17 17 17 17 17 17 17 16 16 16 16 16 16 16 16 16 17 17 17 17
22 21 22 24 24 24 25 24 24 24 23 23 21 20 20 19 19 19 19 19 19 19 19 18 18 18 18 18 17 17 17 17 17 17 17 17 17 17 17 16 16 16 16 16 16 16 17 17 17
23 22 23 24 24 24 24 24 24 24 22 22 21 20 20 19 19 19 19 19 19 19 19 18 18 18 18 18 18 17 17 17 17 17 17 17 17 17 17 17 16 16 16 16 16 16 17 17 17
23 23 24 23 23 23 24 24 24 23 22 22 21 20 20 20 20 20 20 19 19 19 19 18 18 18 18 18 18 17 17 17 17 17 17 17 17 17 17 17 17 16 16 16 16 16 17 17 17
23 23 23 23 23 23 23 23 23 22 22 22 21 20 20 20 20 20 20 20 19 19 19 19 19 18 18 18 18 18 17 17 17 17 17 17 17 17 17 17 17 16 16 17 16 16 16 16 16
23 23 23 23 23 23 23 23 23 22 22 22 21 21 20 20 20 20 20 20 19 19 19 19 19 19 18 18 18 18 17 17 17 17 17 17 17 17 17 17 16 16 16 16 16 16 16 16 16
23 23 23 23 23 23 23 22 22 22 22 21 21 21 21 20 20 20 20 20 19 19 19 19 19 18 18 18 18 18 17 17 17 17 17 17 17 17 16 16 16 16 16 16 16 16 16 16 16
23 22 21 23 23 23 22 20 22 22 21 21 21 21 21 21 20 20 20 20 20 19 19 18 18 18 18 18 18 18 17 17 17 17 17 17 17 17 16 16 16 16 16 16 16 16 16 16 16
22 21 21 22 23 23 22 21 21 21 21 21 21 21 21 21 21 20 20 20 20 19 19 18 18 18 18 18 18 17 17 17 17 17 16 16 16 16 16 16 16 16 16 16 16 16 16 16 16
21 22 22 22 23 23 22 21 21 21 21 21 21 21 21 21 21 20 20 20 20 19 19 18 18 18 18 18 17 17 17 17 16 16 16 16 16 16 16 16 16 16 16 16 15 15 16 16 16
22 22 22 22 23 23 22 21 21 21 21 21 21 22 22 21 21 21 20 20 20 19 19 18 18 18 18 17 17 17 17 17 16 16 16 16 16 16 16 16 16 15 15 15 15 15 15 16 16
22 22 22 22 23 23 22 21 21 21 21 22 22 22 22 22 21 20 20 20 19 19 19 18 18 18 18 17 17 17 17 17 16 16 16 16 16 16 16 16 15 15 15 15 15 15 15 15 16
22 22 22 22 22 23 22 21 21 21 22 22 22 22 22 22 21 20 20 19 19 19 19 18 18 18 18 17 17 17 17 17 16 16 16 16 16 16 15 16 15 15 15 15 15 15 15 15 15
22 23 23 22 22 21 22 20 21 21 21 22 22 22 22 22 21 20 20 19 19 19 19 19 18 18 18 17 17 17 17 17 16 16 16 16 16 16 16 16 15 15 15 15 15 15 15 15 15
23 24 23 23 22 21 22 21 21 22 21 22 22 22 22 22 21 20 20 19 19 19 19 18 18 18 18 17 17 17 17 17 16 16 16 16 16 16 16 16 15 15 15 15 15 15 15 15 15
24 23 23 23 22 21 22 22 21 22 22 22 22 22 22 21 21 21 20 19 19 18 18 18 18 18 18 17 17 17 17 17 16 16 16 16 16 16 16 16 15 15 15 15 15 15 15 15 15
23 21 20 20 20 21 23 22 22 24 24 23 23 22 22 21 21 21 20 19 19 18 18 18 18 18 17 17 17 17 17 17 17 16 16 16 16 16 16 15 15 15 15 15 15 15 15 15 15
22 21 20 20 20 22 23 23 23 25 25 24 23 22 22 22 21 21 20 19 19 18 18 18 18 17 17 17 17 17 17 17 17 17 17 16 16 16 16 15 15 15 15 15 15 15 15 15 15
22 22 22 21 22 22 23 23 24 24 24 24 23 22 22 22 21 21 20 19 19 18 18 18 18 17 17 17 17 17 17 17 17 17 17 16 16 16 15 15 15 15 15 15 15 15 15 15 15
24 23 22 21 21 21 22 23 22 23 23 23 23 22 22 21 21 20 20 19 19 18 18 18 18 18 17 17 17 17 17 17 17 16 16 16 16 16 15 15 15 15 15 15 15 14 14 14 14
24 23 23 22 22 20 20 22 24 24 24 23 23 23 22 21 21 20 20 19 19 18 18 18 17 17 17 17 17 17 17 17 16 16 16 16 16 16 16 15 15 15 15 14 14 14 14 14 14
24 24 23 22 22 22 21 22 25 25 24 24 23 23 22 21 21 20 19 19 18 18 18 18 17 17 17 17 17 17 16 16 16 16 16 16 15 15 15 15 15 15 15 14 14 14 14 14 14
Wind_Speed
11 10 6 3 3 3 1 2 6 6 6 7 8 9 12 12 9 9 5 9 14 15 15 14 15 15 14 14 14 13 13 13 13 12 12 11 10 10 9 9 8 8 8 8 8 8 7 7 7
10 7 4 3 3 2 1 5 9 8 6 6 8 11 13 12 11 9 6 11 15 15 14 15 15 15 15 15 14 14 13 13 13 12 12 11 10 9 9 8 8 8 8 7 7 7 7 6 6
10 8 4 3 3 1 3 5 9 8 7 6 8 10 8 7 9 7 8 13 15 15 16 16 16 16 15 15 14 14 13 13 12 12 11 10 9 8 8 8 7 7 7 7 6 6 6 6 6
5 3 4 4 4 2 6 6 8 8 6 7 9 9 8 9 8 10 11 14 15 15 17 16 16 16 15 14 14 14 13 13 12 11 10 9 8 7 7 7 6 6 6 6 6 5 5 5 5
4 3 4 4 2 5 7 6 6 7 7 8 11 11 10 11 12 13 12 13 15 15 16 16 16 15 15 14 14 13 12 12 11 10 9 8 7 7 6 6 6 6 6 6 5 5 4 4 4
3 3 4 3 1 5 6 6 7 8 9 9 11 11 8 9 10 11 11 11 14 14 14 16 16 15 14 13 13 12 11 10 9 8 7 7 6 6 5 5 5 5 5 5 4 4 3 3 3
3 4 5 2 3 4 5 6 7 7 8 8 9 8 8 9 8 9 10 11 12 13 13 14 14 14 13 13 12 12 10 9 8 6 5 4 4 4 5 5 4 4 4 4 3 3 2 1 1
3 4 5 2 3 4 6 5 6 8 7 7 8 8 9 10 9 9 9 10 10 10 10 11 13 13 13 12 12 11 9 8 6 5 4 3 3 4 4 5 4 3 2 2 1 1 2 2 3
4 3 3 2 3 4 6 6 6 8 8 8 10 14 14 14 12 9 8 8 8 9 8 9 9 10 11 12 11 10 10 8 6 6 6 5 4 6 6 6 5 3 2 2 2 4 5 5 7
2 2 2 3 4 4 4 5 5 7 9 11 15 16 16 13 12 10 9 9 8 8 7 8 7 6 7 8 9 7 7 7 5 3 4 2 2 3 5 7 5 5 4 5 6 7 8 8 7
3 2 2 3 5 3 3 4 4 8 7 10 15 17 14 12 10 9 9 8 8 8 7 6 6 5 6 5 5 4 4 3 3 3 5 3 4 2 4 5 6 6 5 4 4 7 7 5 2
3 1 1 3 4 2 2 3 5 7 7 11 15 15 13 11 9 8 8 9 8 8 7 5 4 4 5 5 4 3 3 2 3 4 5 4 2 2 2 2 2 0 1 0 2 2 2 4 3
3 1 2 3 2 2 2 4 6 8 9 13 16 14 12 10 9 8 9 9 9 8 6 5 3 4 4 3 1 4 3 3 5 4 5 5 2 2 2 2 3 4 3 2 2 3 3 4 4
2 3 3 3 3 3 3 3 5 7 10 12 14 12 10 9 9 8 7 9 9 8 7 5 4 4 4 4 3 3 3 4 5 4 5 6 4 2 2 3 3 3 3 3 3 2 2 2 2
3 3 3 3 4 4 4 2 5 8 9 11 11 11 10 8 8 8 7 8 9 8 7 5 4 4 5 5 3 3 4 5 4 4 6 6 6 5 4 3 3 3 5 6 5 4 3 2 2
5 5 4 5 6 5 4 3 5 8 8 9 8 9 8 7 7 8 8 8 8 8 7 5 5 6 6 4 3 3 5 5 4 5 7 7 8 8 5 3 3 5 6 4 3 4 3 3 3
6 7 6 6 6 6 5 4 5 6 8 8 9 8 8 8 8 7 8 8 8 8 8 6 5 6 6 4 3 4 4 4 5 6 7 8 8 8 5 3 3 6 4 3 4 4 3 3 3
5 5 5 5 5 7 6 5 6 6 7 8 9 10 10 9 8 8 8 8 7 8 8 7 6 5 5 3 3 3 3 3 4 4 5 7 8 9 6 3 5 5 4 4 4 4 3 2 3
3 2 2 3 5 5 6 7 7 8 7 8 9 10 10 10 9 8 8 8 8 7 8 7 6 5 4 3 3 3 2 2 3 3 5 6 7 8 6 3 4 4 4 4 5 4 4 3 3
4 4 4 4 5 5 6 7 8 9 10 8 8 8 10 11 10 9 8 7 8 7 7 7 6 5 5 3 3 3 3 2 3 2 4 6 7 7 6 4 3 3 3 5 4 4 3 3 3
5 6 5 5 4 4 4 5 8 9 9 8 7 8 8 11 12 11 10 9 8 8 7 7 7 7 6 4 3 3 2 1 2 3 3 4 6 6 6 6 4 3 3 3 3 4 4 3 3
4 5 5 6 6 4 7 4 7 10 11 11 9 9 9 9 11 11 10 10 9 8 8 8 7 7 6 6 4 3 3 2 2 2 1 2 5 5 5 5 4 3 3 4 4 5 4 4 3
5 4 6 7 6 5 7 5 6 11 11 12 11 10 10 10 11 11 11 9 9 7 6 7 7 6 6 6 4 2 3 3 2 3 2 3 3 3 4 4 3 3 2 3 3 4 4 3 3
3 3 5 6 5 6 9 7 5 9 12 13 13 12 11 10 11 11 11 9 9 8 6 6 7 6 5 5 5 5 4 3 3 3 2 2 2 2 3 3 3 3 3 3 3 3 3 3 3
5 3 3 4 5 5 7 6 5 9 12 13 13 12 13 12 12 12 12 10 10 10 8 7 7 6 5 5 5 5 4 4 4 3 1 2 2 2 2 2 3 3 3 3 4 3 3 3 3
8 7 4 3 3 3 6 5 4 8 10 12 13 11 11 12 12 11 11 11 10 10 9 8 8 7 5 4 4 5 4 2 2 2 2 2 2 2 2 3 4 4 4 4 4 4 4 4 4
6 8 8 6 6 4 4 4 5 7 9 11 12 12 10 11 11 11 11 11 11 11 9 9 9 8 6 4 4 4 3 3 2 2 3 2 3 2 3 3 4 4 4 5 4 4 4 4 5
8 6 4 3 3 2 3 6 6 9 11 13 13 12 11 11 12 11 11 11 11 10 9 9 8 8 6 5 4 4 3 3 3 3 4 3 4 3 3 4 4 4 4 4 4 4 4 5 3
9 8 6 4 3 1 1 0 3 9 10 11 12 12 11 12 12 11 10 10 10 10 9 8 8 7 6 5 5 5 4 3 4 3 3 3 3 3 4 4 4 4 4 4 4 4 5 5 5
7 8 7 4 4 3 2 1 3 6 8 10 11 11 11 11 11 12 11 10 10 10 9 9 8 8 6 5 5 5 4 4 4 4 3 3 4 3 4 4 5 5 5 4 4 4 5 5 5
Wind_Direction
284 265 257 264 261 238 244 80 80 70 60 53 52 65 68 55 65 99 135 114 112 111 111 106 102 101 100 99 99 100 100 99 96 94 92 88 82 76 72 67 63 61 61 59 60 60 56 54 52
284 283 278 248 260 255 74 77 78 74 81 79 66 68 75 72 82 100 110 108 109 108 109 106 104 102 99 98 97 97 96 96 95 93 90 87 83 76 69 64 64 61 59 60 60 57 53 51 48
264 266 265 254 259 301 84 80 92 86 82 85 76 61 61 79 91 107 124 116 108 107 106 108 107 104 102 99 98 98 98 97 95 93 89 85 80 74 68 62 61 59 58 58 58 56 50 47 44
265 261 245 251 269 70 100 105 105 101 83 81 89 77 69 65 95 117 121 113 109 108 108 112 109 108 106 102 100 98 97 96 95 93 89 84 77 71 66 62 60 57 55 55 53 52 46 42 37
259 253 252 248 268 82 87 96 96 96 91 85 88 90 82 76 99 113 114 113 112 112 115 116 114 112 110 106 103 99 96 95 93 91 88 82 75 70 68 63 60 56 54 53 50 46 44 39 29
277 260 261 243 135 91 89 99 99 98 96 101 100 100 93 101 103 110 113 113 113 115 117 120 118 116 113 109 105 102 100 98 96 93 91 88 86 81 78 73 65 57 50 48 44 38 38 36 19
280 281 270 258 118 94 90 84 91 102 101 98 106 104 110 108 108 111 113 113 115 121 125 128 128 124 117 114 111 109 108 108 108 109 109 115 123 118 103 91 79 67 57 49 39 25 25 19 339
284 289 287 277 113 100 94 92 96 97 90 97 108 114 126 129 125 116 116 117 118 120 124 127 130 132 132 127 125 126 126 127 133 143 157 181 193 173 144 114 101 84 71 55 15 313 278 270 266
278 270 291 359 88 110 116 112 93 97 97 83 85 105 122 131 129 124 120 115 115 117 123 124 125 128 134 139 136 147 150 157 166 181 200 218 204 164 150 117 131 150 176 220 245 256 260 259 255
230 277 313 46 74 101 114 118 119 115 104 97 97 105 121 133 131 130 129 127 124 122 121 119 121 131 132 126 140 153 145 162 172 162 158 193 103 91 111 143 172 192 208 230 243 253 260 255 238
233 245 341 43 64 74 100 118 119 113 111 121 123 127 132 132 136 140 138 130 126 121 112 115 129 130 127 118 119 116 113 128 95 70 83 59 61 99 127 171 185 210 210 229 241 241 246 249 216
245 245 97 51 60 77 95 110 96 96 117 119 125 132 138 141 142 140 131 126 121 115 112 113 119 115 113 117 130 125 101 84 67 44 63 57 36 27 28 57 44 46 94 109 286 292 342 355 14
216 198 126 114 108 127 113 101 98 106 116 121 129 136 142 142 143 139 135 129 123 123 125 122 109 105 102 101 98 92 73 69 76 37 52 60 46 30 13 54 27 23 21 25 6 15 24 11 20
183 165 148 149 147 146 128 123 125 120 126 129 137 143 144 142 143 137 136 132 133 135 128 118 115 116 120 114 96 87 90 82 73 39 45 56 52 37 21 47 38 12 10 16 22 26 25 24 25
199 185 194 187 185 175 150 148 143 134 138 138 144 145 142 148 149 144 145 139 137 135 128 124 124 100 83 82 76 82 80 76 67 41 35 43 43 37 38 36 30 9 14 26 24 20 16 21 39
214 221 221 204 200 184 167 165 150 150 149 145 152 147 141 147 156 149 144 136 132 128 123 127 121 102 87 76 61 59 59 62 66 48 29 30 42 46 42 28 12 20 25 24 31 25 12 17 19
222 213 203 200 194 173 176 169 174 154 154 156 160 158 156 161 159 145 136 130 133 131 130 125 109 103 96 93 78 66 64 49 56 49 28 23 31 44 50 25 11 33 28 15 25 37 23 8 356
211 208 200 196 181 166 175 170 159 159 177 171 169 168 169 165 157 146 136 132 130 129 129 124 117 111 112 103 90 71 64 61 62 62 43 27 26 39 37 32 27 35 30 19 26 26 24 2 347
236 208 183 191 171 170 177 173 165 179 197 185 180 177 169 159 151 142 143 142 135 131 129 130 134 129 119 110 105 99 91 72 61 67 51 40 37 33 33 29 36 41 40 31 31 20 9 0 7
232 192 192 186 178 186 182 187 181 191 204 198 187 182 169 159 154 149 150 146 142 136 134 134 133 129 114 103 104 104 95 94 78 53 49 42 44 31 28 31 39 51 48 35 29 29 11 1 22
216 218 206 190 176 197 191 205 203 206 204 196 195 190 176 164 160 158 158 153 147 147 148 144 143 133 126 119 97 96 85 80 83 71 48 39 47 41 30 29 35 39 51 39 33 38 32 3 4
228 211 207 206 201 216 212 219 212 198 193 195 197 188 176 166 160 157 156 156 154 153 152 147 145 136 137 135 128 133 124 103 96 98 91 64 58 50 34 31 31 36 51 44 27 38 24 26 12
225 198 209 223 231 243 232 231 208 193 193 190 189 188 173 169 164 162 159 157 153 147 144 143 139 135 134 128 132 126 103 103 97 100 95 86 71 64 51 31 32 34 52 63 52 45 37 28 28
203 214 234 239 246 246 230 222 207 195 192 184 182 182 174 171 166 163 158 151 145 141 140 136 134 127 130 140 143 119 108 106 101 98 98 102 96 71 62 47 43 35 33 41 44 53 57 38 26
203 207 234 218 218 235 219 214 208 186 184 178 176 177 173 170 168 163 157 152 148 149 151 148 139 139 150 154 143 136 137 137 125 127 120 110 108 80 61 53 57 45 31 38 30 36 40 49 43
208 212 225 248 231 233 198 203 171 169 171 165 164 169 170 167 166 161 157 153 154 154 158 155 151 149 156 157 144 139 143 131 119 130 124 95 102 101 84 72 66 51 33 41 32 22 27 37 37
219 225 234 264 278 255 193 158 134 149 154 156 159 161 170 166 159 158 157 155 156 158 160 157 151 152 161 154 142 132 122 108 110 102 90 81 81 89 84 82 79 62 42 41 34 34 24 34 40
234 247 251 252 285 266 213 191 174 173 169 166 166 168 169 162 160 159 159 159 159 158 159 156 154 154 157 159 154 131 117 112 91 74 73 72 79 70 76 72 75 64 54 47 37 35 26 35 38
215 230 237 241 241 271 278 265 136 169 169 169 169 168 169 164 161 160 159 158 154 151 153 155 156 154 157 158 137 131 127 121 108 88 88 83 81 94 90 74 74 68 59 55 49 39 37 34 29
238 245 245 258 273 240 248 236 129 151 159 167 169 168 167 160 157 157 156 157 156 157 160 162 163 157 155 149 139 133 131 133 121 111 105 104 90 74 88 85 76 66 57 52 49 44 43 42 34
Height
1495 1495 1496 1498 1498 1498 1494 1487 1482 1484 1486 1488 1488 1489 1493 1498 1504 1516 1517 1516 1517 1518 1519 1520 1522 1523 1524 1526 1527 1528 1529 1529 1530 1531 1532 1533 1534 1535 1536 1536 1537 1537 1538 1538 1539 1539 1540 1540 1541
1495 1496 1498 1497 1498 1501 1496 1486 1486 1487 1489 1490 1491 1492 1496 1503 1508 1513 1516 1518 1518 1519 1521 1522 1523 1524 1526 1527 1528 1529 1530 1530 1531 1532 1533 1534 1535 1535 1536 1536 1537 1537 1538 1538 1539 1539 1540 1540 1541
1495 1497 1498 1496 1494 1497 1496 1487 1487 1489 1490 1491 1494 1497 1501 1507 1511 1514 1517 1519 1520 1521 1522 1524 1525 1526 1527 1528 1529 1530 1531 1532 1533 1533 1534 1535 1535 1536 1537 1537 1537 1538 1538 1538 1539 1539 1540 1540 1541
1497 1498 1497 1496 1494 1487 1486 1487 1487 1490 1491 1493 1495 1501 1507 1511 1513 1516 1518 1520 1521 1522 1524 1525 1527 1528 1529 1530 1531 1532 1533 1533 1534 1534 1535 1536 1536 1537 1537 1538 1538 1538 1538 1539 1539 1539 1540 1540 1541
1497 1497 1496 1495 1490 1484 1484 1486 1488 1490 1493 1495 1498 1505 1511 1514 1515 1518 1520 1522 1523 1524 1525 1527 1528 1529 1531 1532 1533 1533 1534 1535 1535 1536 1536 1537 1537 1538 1538 1538 1539 1539 1539 1539 1539 1540 1540 1540 1541
1498 1495 1499 1498 1492 1486 1486 1488 1490 1492 1495 1498 1502 1507 1514 1516 1518 1520 1522 1524 1525 1526 1527 1529 1530 1531 1532 1533 1534 1535 1536 1536 1537 1537 1538 1538 1538 1539 1539 1539 1539 1539 1539 1539 1540 1540 1540 1541 1541
1499 1496 1497 1494 1493 1491 1489 1490 1492 1494 1497 1500 1503 1509 1515 1518 1520 1521 1524 1526 1527 1528 1529 1530 1532 1533 1534 1535 1536 1537 1537 1538 1538 1539 1539 1539 1540 1540 1540 1540 1540 1540 1540 1540 1540 1540 1540 1541 1541
1497 1497 1495 1492 1494 1494 1492 1493 1495 1496 1499 1502 1504 1509 1515 1519 1521 1523 1525 1527 1529 1530 1532 1533 1534 1535 1536 1537 1538 1539 1539 1540 1540 1540 1541 1541 1541 1541 1541 1541 1541 1540 1540 1540 1540 1541 1541 1541 1542
1497 1499 1499 1494 1495 1494 1493 1495 1497 1499 1501 1503 1505 1509 1514 1519 1522 1524 1526 1529 1531 1532 1534 1536 1537 1537 1539 1539 1540 1541 1541 1542 1542 1542 1542 1542 1542 1542 1542 1542 1542 1541 1541 1541 1541 1541 1541 1542 1542
1497 1501 1497 1492 1492 1493 1494 1496 1498 1501 1503 1506 1510 1513 1517 1520 1523 1525 1527 1530 1532 1534 1536 1537 1539 1539 1541 1542 1542 1543 1543 1543 1543 1544 1544 1544 1544 1545 1544 1544 1543 1543 1542 1542 1542 1542 1542 1542 1543
1495 1497 1494 1492 1493 1494 1496 1497 1499 1501 1506 1508 1511 1515 1519 1522 1524 1526 1529 1531 1533 1535 1537 1539 1540 1541 1542 1543 1544 1545 1545 1545 1545 1546 1546 1546 1546 1546 1545 1544 1544 1544 1543 1543 1543 1543 1543 1543 1544
1495 1494 1494 1495 1497 1497 1498 1499 1501 1503 1507 1509 1512 1516 1520 1523 1525 1527 1530 1532 1534 1536 1538 1540 1541 1542 1544 1544 1545 1546 1547 1546 1547 1547 1547 1547 1546 1547 1546 1546 1545 1545 1545 1544 1544 1544 1544 1544 1544
1495 1494 1496 1497 1498 1499 1500 1502 1503 1506 1509 1511 1514 1518 1521 1523 1526 1528 1531 1533 1535 1537 1539 1541 1542 1543 1544 1545 1547 1547 1548 1548 1548 1548 1548 1547 1547 1547 1547 1547 1546 1546 1546 1545 1545 1545 1544 1544 1544
1495 1496 1497 1499 1500 1501 1502 1504 1505 1508 1511 1513 1516 1519 1522 1524 1527 1529 1532 1534 1536 1538 1540 1541 1543 1544 1545 1546 1548 1548 1548 1549 1549 1549 1549 1548 1548 1548 1547 1547 1547 1546 1546 1546 1546 1546 1545 1545 1545
1495 1497 1499 1499 1500 1502 1503 1507 1507 1510 1512 1514 1517 1520 1523 1525 1527 1530 1532 1534 1536 1539 1540 1542 1544 1545 1546 1547 1548 1549 1549 1550 1550 1550 1550 1549 1549 1548 1548 1548 1547 1547 1547 1546 1546 1546 1546 1545 1545
1496 1499 1504 1500 1499 1501 1506 1514 1509 1510 1512 1515 1517 1520 1523 1525 1527 1530 1532 1535 1537 1539 1541 1543 1544 1546 1547 1548 1549 1549 1550 1550 1551 1550 1550 1550 1550 1549 1548 1548 1548 1548 1547 1547 1546 1546 1546 1546 1546
1499 1504 1504 1501 1497 1499 1504 1511 1509 1511 1513 1515 1517 1520 1523 1525 1528 1530 1533 1535 1537 1539 1541 1543 1545 1546 1547 1548 1549 1550 1551 1551 1551 1551 1551 1551 1550 1550 1549 1549 1548 1548 1547 1547 1547 1546 1546 1546 1546
1503 1502 1502 1501 1497 1499 1504 1508 1508 1510 1513 1514 1516 1519 1522 1524 1527 1530 1532 1535 1537 1540 1542 1543 1545 1547 1548 1549 1550 1551 1551 1552 1552 1552 1551 1551 1551 1550 1550 1550 1549 1548 1548 1548 1547 1547 1547 1547 1546
1495 1499 1502 1500 1496 1500 1504 1507 1508 1510 1512 1513 1515 1517 1519 1523 1527 1529 1532 1535 1537 1540 1542 1544 1545 1547 1548 1549 1550 1551 1552 1553 1553 1553 1552 1552 1552 1551 1551 1550 1550 1549 1548 1548 1548 1548 1548 1547 1547
1495 1499 1502 1499 1496 1499 1503 1506 1506 1508 1510 1511 1513 1515 1517 1521 1525 1528 1531 1534 1537 1539 1541 1543 1545 1547 1548 1550 1551 1552 1553 1553 1553 1553 1553 1553 1552 1552 1552 1551 1551 1550 1550 1549 1549 1549 1548 1548 1548
1495 1498 1499 1501 1499 1499 1504 1510 1508 1506 1508 1509 1511 1514 1516 1519 1523 1526 1530 1533 1536 1539 1541 1543 1545 1547 1548 1550 1551 1552 1553 1554 1554 1554 1554 1554 1553 1553 1552 1552 1552 1551 1551 1550 1550 1550 1549 1549 1549
1499 1492 1494 1498 1503 1508 1505 1517 1508 1503 1504 1506 1509 1511 1514 1517 1521 1525 1528 1532 1535 1538 1540 1543 1545 1547 1548 1550 1551 1552 1553 1554 1555 1555 1555 1555 1554 1554 1553 1553 1552 1552 1552 1551 1551 1551 1550 1550 1550
1493 1490 1493 1495 1500 1505 1502 1510 1507 1499 1503 1503 1505 1508 1511 1515 1519 1523 1527 1530 1534 1537 1540 1542 1544 1546 1548 1549 1551 1553 1554 1555 1555 1555 1555 1555 1555 1554 1554 1554 1553 1553 1553 1553 1552 1552 1551 1551 1551
1490 1493 1495 1495 1500 1512 1501 1505 1506 1495 1495 1497 1501 1504 1508 1513 1517 1521 1525 1529 1533 1536 1539 1541 1543 1545 1548 1550 1551 1553 1554 1555 1555 1556 1556 1556 1556 1555 1555 1555 1554 1554 1554 1554 1553 1553 1553 1552 1552
1492 1504 1515 1515 1515 1509 1491 1496 1496 1485 1485 1490 1496 1501 1506 1510 1515 1519 1523 1527 1531 1534 1537 1540 1543 1545 1547 1549 1551 1553 1554 1555 1556 1556 1556 1557 1557 1556 1556 1556 1555 1555 1555 1555 1554 1554 1554 1554 1553
1492 1500 1515 1520 1513 1500 1488 1493 1485 1478 1482 1487 1493 1498 1503 1508 1512 1517 1521 1525 1529 1532 1536 1539 1541 1544 1547 1549 1551 1553 1554 1555 1556 1556 1557 1557 1557 1557 1557 1557 1556 1556 1556 1556 1555 1555 1555 1555 1554
1491 1494 1493 1502 1499 1501 1492 1485 1481 1478 1481 1486 1492 1497 1501 1506 1510 1515 1519 1524 1527 1531 1534 1538 1540 1543 1546 1549 1551 1552 1554 1555 1556 1556 1557 1557 1558 1558 1557 1557 1557 1557 1556 1556 1556 1556 1555 1555 1555
1483 1486 1491 1499 1507 1509 1497 1489 1489 1484 1483 1485 1490 1495 1499 1504 1509 1513 1518 1522 1526 1529 1533 1537 1540 1542 1545 1548 1550 1552 1553 1554 1555 1556 1556 1557 1557 1558 1558 1558 1557 1557 1557 1557 1556 1556 1556 1556 1556
1483 1485 1486 1490 1493 1507 1510 1497 1473 1476 1478 1482 1487 1492 1497 1502 1506 1511 1516 1520 1524 1528 1532 1535 1538 1542 1544 1547 1549 1550 1552 1553 1554 1555 1556 1557 1557 1557 1558 1558 1558 1558 1557 1557 1557 1557 1557 1556 1556
1476 1479 1482 1495 1493 1490 1498 1496 1470 1472 1476 1480 1485 1491 1495 1500 1505 1509 1514 1518 1523 1526 1530 1533 1537 1540 1543 1545 1547 1549 1551 1552 1553 1554 1555 1556 1557 1557 1558 1558 1558 1558 1558 1558 1558 1557 1557 1557 1556